TimeCST,TemperatureF,Dew PointF,Humidity,Sea Level PressureIn,VisibilityMPH,Wind Direction,Wind SpeedMPH,Gust SpeedMPH,PrecipitationIn,Events,Conditions,WindDirDegrees,DateUTC
12:53 AM,39.9,28.0,63,30.29,10.0,South,8.1,-,N/A,,Overcast,170,2013-01-05 06:53:00
1:53 AM,42.1,28.9,60,30.27,10.0,SSW,11.5,-,N/A,,Overcast,200,2013-01-05 07:53:00
2:53 AM,41.0,30.9,67,30.27,10.0,South,11.5,-,N/A,,Overcast,190,2013-01-05 08:53:00
3:53 AM,41.0,30.9,67,30.26,10.0,SSW,9.2,-,N/A,,Overcast,200,2013-01-05 09:53:00
4:53 AM,39.9,32.0,73,30.25,10.0,South,5.8,-,N/A,,Overcast,180,2013-01-05 10:53:00
5:53 AM,39.9,32.0,73,30.24,10.0,South,6.9,-,N/A,,Overcast,180,2013-01-05 11:53:00
6:53 AM,39.0,32.0,76,30.25,10.0,South,6.9,-,N/A,,Overcast,180,2013-01-05 12:53:00
7:53 AM,39.9,33.1,77,30.26,10.0,SSW,8.1,-,N/A,,Overcast,200,2013-01-05 13:53:00
8:53 AM,39.9,32.0,73,30.25,9.0,South,13.8,-,N/A,,Overcast,190,2013-01-05 14:53:00
9:53 AM,43.0,32.0,65,30.25,9.0,SSW,12.7,-,0.00,Rain,Light Rain,200,2013-01-05 15:53:00
10:53 AM,43.0,30.9,62,30.25,10.0,SW,12.7,20.7,0.00,Rain,Light Rain,220,2013-01-05 16:53:00
11:53 AM,44.1,30.0,58,30.22,10.0,WSW,11.5,-,0.00,,Overcast,240,2013-01-05 17:53:00
12:53 PM,46.9,30.0,52,30.20,10.0,SW,13.8,20.7,0.00,Rain,Light Rain,230,2013-01-05 18:53:00
1:53 PM,48.0,30.0,50,30.17,10.0,SW,10.4,-,0.00,,Clear,220,2013-01-05 19:53:00
2:53 PM,50.0,30.0,46,30.17,10.0,WSW,10.4,17.3,0.00,,Clear,250,2013-01-05 20:53:00
3:53 PM,50.0,28.9,44,30.17,10.0,West,11.5,-,N/A,,Clear,260,2013-01-05 21:53:00
4:53 PM,48.9,28.9,46,30.20,10.0,West,9.2,-,N/A,,Clear,270,2013-01-05 22:53:00
5:53 PM,45.0,28.9,53,30.22,10.0,West,3.5,-,N/A,,Clear,270,2013-01-05 23:53:00
6:53 PM,41.0,28.9,62,30.25,10.0,SW,3.5,-,N/A,,Clear,230,2013-01-06 00:53:00
7:53 PM,36.0,28.0,73,30.27,10.0,Calm,Calm,-,N/A,,Clear,0,2013-01-06 01:53:00
8:53 PM,37.9,25.0,60,30.28,10.0,NNW,5.8,-,N/A,,Clear,330,2013-01-06 02:53:00
9:53 PM,36.0,24.1,62,30.31,10.0,NNW,3.5,-,N/A,,Clear,340,2013-01-06 03:53:00
10:53 PM,34.0,23.0,64,30.32,10.0,NW,3.5,-,N/A,,Clear,320,2013-01-06 04:53:00
11:53 PM,30.9,21.9,69,30.34,10.0,WNW,3.5,-,N/A,,Clear,290,2013-01-06 05:53:00